| time (UTC) | temp F | wind direction | speed MPH | gust MPH | rain 1hr in | rain 24hr in | rain mn in | humidity % | barometer mb |
| 20260507114101 | 74 | 44 | 0.0 | 4.0 | 0.00 | 0.00 | 0.00 | 66 | 1015.0 |
| 20260507113510 | 74 | 44 | 1.0 | 5.0 | 0.00 | 0.00 | 0.00 | 67 | 1015.1 |
| 20260507113041 | 74 | 32 | 3.0 | 5.0 | 0.00 | 0.00 | 0.00 | 66 | 1015.2 |
| 20260507112600 | 74 | 58 | 0.0 | 5.0 | 0.00 | 0.00 | 0.00 | 67 | 1015.0 |
| 20260507112005 | 73 | 31 | 1.0 | 5.0 | 0.00 | 0.00 | 0.00 | 68 | 1014.9 |
| 20260507111533 | 73 | 18 | 3.0 | 6.0 | 0.00 | 0.00 | 0.00 | 67 | 1015.1 |
| 20260507111051 | 73 | 44 | 3.0 | 6.0 | 0.00 | 0.00 | 0.00 | 68 | 1015.1 |
| 20260507110603 | 73 | 18 | 0.0 | 5.0 | 0.00 | 0.00 | 0.00 | 70 | 1015.1 |
| 20260507110012 | 72 | 18 | 2.0 | 5.0 | 0.00 | 0.00 | 0.00 | 70 | 1015.2 |
| 20260507105539 | 72 | 31 | 1.0 | 6.0 | 0.00 | 0.00 | 0.00 | 72 | 1015.1 |
| 20260507105053 | 71 | 27 | 2.0 | 7.0 | 0.00 | 0.00 | 0.00 | 70 | 1015.2 |
| 20260507104607 | 72 | 23 | 3.0 | 7.0 | 0.00 | 0.00 | 0.00 | 72 | 1015.3 |
| 20260507104015 | 71 | 35 | 4.0 | 7.0 | 0.00 | 0.00 | 0.00 | 72 | 1015.3 |
| 20260507103541 | 72 | 32 | 3.0 | 6.0 | 0.00 | 0.00 | 0.00 | 71 | 1015.3 |
| 20260507103058 | 72 | 27 | 1.0 | 5.0 | 0.00 | 0.00 | 0.00 | 71 | 1015.1 |
| 20260507102505 | 72 | 32 | 2.0 | 5.0 | 0.00 | 0.00 | 0.00 | 72 | 1015.1 |
| 20260507102037 | 71 | 26 | 2.0 | 6.0 | 0.00 | 0.00 | 0.00 | 73 | 1015.1 |
| 20260507101555 | 71 | 359 | 2.0 | 6.0 | 0.00 | 0.00 | 0.00 | 73 | 1015.1 |
| 20260507101108 | 71 | 359 | 3.0 | 7.0 | 0.00 | 0.00 | 0.00 | 72 | 1015.1 |
| 20260507100515 | 72 | 23 | 4.0 | 7.0 | 0.00 | 0.00 | 0.00 | 72 | 1015.1 |
| 20260507100047 | 72 | 32 | 3.0 | 7.0 | 0.00 | 0.00 | 0.00 | 72 | 1015.0 |
| 20260507095605 | 72 | 32 | 3.0 | 8.0 | 0.00 | 0.00 | 0.00 | 72 | 1015.2 |
| 20260507095015 | 72 | 29 | 5.0 | 8.0 | 0.00 | 0.00 | 0.00 | 72 | 1015.1 |
| 20260507094546 | 72 | 24 | 3.0 | 7.0 | 0.00 | 0.00 | 0.00 | 73 | 1015.1 |
| 20260507094105 | 71 | 38 | 3.0 | 7.0 | 0.00 | 0.00 | 0.00 | 74 | 1015.1 |
| 20260507093511 | 71 | 32 | 3.0 | 7.0 | 0.00 | 0.00 | 0.00 | 74 | 1015.2 |
| 20260507093048 | 71 | 31 | 4.0 | 7.0 | 0.00 | 0.00 | 0.00 | 73 | 1015.3 |
| 20260507092557 | 71 | 32 | 3.0 | 8.0 | 0.00 | 0.00 | 0.00 | 75 | 1015.3 |
| 20260507092005 | 71 | 18 | 4.0 | 8.0 | 0.00 | 0.00 | 0.00 | 74 | 1015.3 |
| 20260507091526 | 71 | 32 | 2.0 | 7.0 | 0.00 | 0.00 | 0.00 | 74 | 1015.2 |
| 20260507091054 | 70 | 30 | 3.0 | 7.0 | 0.00 | 0.00 | 0.00 | 74 | 1015.3 |
| 20260507090607 | 70 | 18 | 3.0 | 6.0 | 0.00 | 0.00 | 0.00 | 74 | 1015.2 |
| 20260507090013 | 70 | 29 | 2.0 | 7.0 | 0.00 | 0.00 | 0.00 | 74 | 1015.2 |
| 20260507085541 | 70 | 49 | 3.0 | 7.0 | 0.00 | 0.00 | 0.00 | 74 | 1015.1 |
| 20260507085056 | 70 | 30 | 3.0 | 7.0 | 0.00 | 0.00 | 0.00 | 74 | 1015.2 |
| 20260507084501 | 70 | 30 | 3.0 | 7.0 | 0.00 | 0.00 | 0.00 | 74 | 1015.3 |
| 20260507084033 | 70 | 30 | 3.0 | 7.0 | 0.00 | 0.00 | 0.00 | 74 | 1015.2 |
| 20260507083543 | 69 | 30 | 3.0 | 7.0 | 0.00 | 0.00 | 0.00 | 75 | 1015.2 |
| 20260507083101 | 69 | 15 | 2.0 | 6.0 | 0.00 | 0.00 | 0.00 | 75 | 1015.2 |
| 20260507082504 | 69 | 24 | 3.0 | 6.0 | 0.00 | 0.00 | 0.00 | 75 | 1015.1 |
| 20260507082032 | 68 | 23 | 1.0 | 7.0 | 0.00 | 0.00 | 0.00 | 76 | 1015.3 |
| 20260507081545 | 68 | 38 | 4.0 | 7.0 | 0.00 | 0.00 | 0.00 | 76 | 1015.2 |
| 20260507081059 | 68 | 15 | 2.0 | 8.0 | 0.00 | 0.00 | 0.00 | 75 | 1015.2 |
| 20260507080507 | 68 | 30 | 3.0 | 6.0 | 0.00 | 0.00 | 0.00 | 76 | 1015.0 |
| 20260507080039 | 68 | 350 | 2.0 | 6.0 | 0.00 | 0.00 | 0.00 | 76 | 1014.9 |
| 20260507075547 | 68 | 30 | 3.0 | 5.0 | 0.00 | 0.00 | 0.00 | 76 | 1014.9 |
| 20260507075105 | 68 | 24 | 1.0 | 6.0 | 0.00 | 0.00 | 0.00 | 76 | 1014.7 |
| 20260507074511 | 68 | 8 | 1.0 | 8.0 | 0.00 | 0.00 | 0.00 | 75 | 1014.7 |
| 20260507074040 | 69 | 6 | 3.0 | 8.0 | 0.00 | 0.00 | 0.00 | 75 | 1014.7 |
| 20260507073554 | 69 | 23 | 2.0 | 8.0 | 0.00 | 0.00 | 0.00 | 75 | 1014.8 |
| 20260507073107 | 69 | 20 | 3.0 | 8.0 | 0.00 | 0.00 | 0.00 | 75 | 1014.8 |
| 20260507072515 | 69 | 13 | 5.0 | 8.0 | 0.00 | 0.00 | 0.00 | 75 | 1014.8 |
| 20260507072043 | 68 | 15 | 2.0 | 6.0 | 0.00 | 0.00 | 0.00 | 75 | 1014.8 |
| 20260507071610 | 68 | 354 | 2.0 | 7.0 | 0.00 | 0.00 | 0.00 | 76 | 1014.9 |
| 20260507071007 | 68 | 23 | 3.0 | 6.0 | 0.00 | 0.00 | 0.00 | 76 | 1014.9 |
| 20260507070537 | 68 | 24 | 3.0 | 6.0 | 0.00 | 0.00 | 0.00 | 76 | 1014.9 |
| 20260507070052 | 68 | 15 | 2.0 | 6.0 | 0.00 | 0.00 | 0.00 | 77 | 1015.0 |
| 20260507065608 | 68 | 4 | 1.0 | 6.0 | 0.00 | 0.00 | 0.00 | 77 | 1014.7 |
| 20260507065028 | 68 | 2 | 0.0 | 7.0 | 0.00 | 0.00 | 0.00 | 79 | 1014.7 |
| 20260507064539 | 67 | 9 | 3.0 | 7.0 | 0.00 | 0.00 | 0.00 | 79 | 1014.7 |
| 20260507064053 | 67 | 255 | 0.0 | 5.0 | 0.00 | 0.00 | 0.00 | 80 | 1014.8 |
| 20260507063608 | 66 | 255 | 2.0 | 6.0 | 0.00 | 0.00 | 0.00 | 80 | 1014.6 |
| 20260507063013 | 66 | 314 | 3.0 | 6.0 | 0.00 | 0.00 | 0.00 | 81 | 1014.6 |
| 20260507062543 | 66 | 264 | 1.0 | 5.0 | 0.00 | 0.00 | 0.00 | 83 | 1014.6 |
| 20260507062057 | 65 | 288 | 1.0 | 6.0 | 0.00 | 0.00 | 0.00 | 83 | 1014.6 |
| 20260507061507 | 65 | 15 | 2.0 | 6.0 | 0.00 | 0.00 | 0.00 | 83 | 1014.7 |
| 20260507061022 | 65 | 342 | 0.0 | 5.0 | 0.00 | 0.00 | 0.00 | 84 | 1014.8 |
| 20260507060551 | 65 | 4 | 0.0 | 4.0 | 0.00 | 0.00 | 0.00 | 84 | 1014.8 |
| 20260507060110 | 65 | 294 | 1.0 | 5.0 | 0.00 | 0.00 | 0.00 | 84 | 1014.7 |
| 20260507055507 | 65 | 266 | 1.0 | 6.0 | 0.00 | 0.00 | 0.00 | 84 | 1014.7 |
| 20260507055037 | 65 | 307 | 1.0 | 6.0 | 0.00 | 0.00 | 0.00 | 84 | 1014.6 |
| 20260507054553 | 65 | 290 | 2.0 | 5.0 | 0.00 | 0.00 | 0.00 | 84 | 1014.6 |
| 20260507054001 | 65 | 315 | 1.0 | 6.0 | 0.00 | 0.00 | 0.00 | 85 | 1014.4 |
| 20260507053534 | 64 | 358 | 2.0 | 6.0 | 0.00 | 0.00 | 0.00 | 84 | 1014.5 |
| 20260507053114 | 64 | 255 | 2.0 | 6.0 | 0.00 | 0.00 | 0.00 | 84 | 1014.4 |
| 20260507052604 | 64 | 288 | 3.0 | 8.0 | 0.00 | 0.00 | 0.00 | 84 | 1014.3 |
| 20260507052014 | 64 | 307 | 2.0 | 7.0 | 0.00 | 0.00 | 0.00 | 85 | 1014.1 |
| 20260507051545 | 64 | 294 | 2.0 | 6.0 | 0.00 | 0.00 | 0.00 | 85 | 1013.9 |
| 20260507051058 | 64 | 240 | 2.0 | 5.0 | 0.00 | 0.00 | 0.00 | 84 | 1014.0 |
| 20260507050507 | 64 | 293 | 3.0 | 5.0 | 0.00 | 0.00 | 0.00 | 84 | 1013.9 |
| 20260507050040 | 64 | 288 | 1.0 | 7.0 | 0.00 | 0.00 | 0.00 | 84 | 1013.7 |
| 20260507045559 | 64 | 255 | 4.0 | 7.0 | 0.00 | 0.00 | 0.00 | 84 | 1013.7 |
| 20260507045009 | 64 | 300 | 1.0 | 6.0 | 0.00 | 0.00 | 0.00 | 85 | 1013.6 |
| 20260507044540 | 64 | 265 | 1.0 | 8.0 | 0.00 | 0.00 | 0.00 | 85 | 1013.6 |
| 20260507044054 | 64 | 307 | 2.0 | 8.0 | 0.00 | 0.00 | 0.00 | 85 | 1013.5 |
| 20260507043501 | 64 | 314 | 2.0 | 5.0 | 0.00 | 0.00 | 0.00 | 85 | 1013.4 |
| 20260507043036 | 64 | 288 | 2.0 | 6.0 | 0.00 | 0.00 | 0.00 | 85 | 1013.5 |
| 20260507042545 | 64 | 15 | 1.0 | 5.0 | 0.00 | 0.00 | 0.00 | 85 | 1013.4 |
| 20260507042104 | 64 | 271 | 1.0 | 5.0 | 0.00 | 0.00 | 0.00 | 84 | 1013.4 |
| 20260507041513 | 64 | 293 | 1.0 | 5.0 | 0.00 | 0.00 | 0.00 | 83 | 1013.3 |
| 20260507041046 | 64 | 285 | 2.0 | 5.0 | 0.00 | 0.00 | 0.00 | 83 | 1013.3 |
| 20260507040559 | 64 | 294 | 1.0 | 5.0 | 0.00 | 0.00 | 0.00 | 83 | 1013.2 |
| 20260507040009 | 64 | 17 | 0.0 | 6.0 | 0.00 | 0.00 | 0.00 | 82 | 1013.1 |
| 20260507035538 | 64 | 342 | 2.0 | 7.0 | 0.00 | 0.00 | 0.00 | 81 | 1013.0 |
| 20260507035056 | 65 | 294 | 2.0 | 7.0 | 0.00 | 0.00 | 0.00 | 81 | 1013.0 |
| 20260507034505 | 65 | 223 | 2.0 | 7.0 | 0.00 | 0.00 | 0.00 | 80 | 1012.9 |
| 20260507034019 | 65 | 288 | 1.0 | 7.0 | 0.00 | 0.00 | 0.00 | 80 | 1012.9 |
| 20260507033549 | 64 | 294 | 2.0 | 5.0 | 0.00 | 0.00 | 0.00 | 79 | 1012.9 |
| 20260507033107 | 64 | 285 | 2.0 | 7.0 | 0.00 | 0.00 | 0.00 | 79 | 1012.9 |
| 20260507032512 | 64 | 338 | 1.0 | 7.0 | 0.00 | 0.00 | 0.00 | 80 | 1012.9 |
| 20260507032045 | 64 | 307 | 2.0 | 5.0 | 0.00 | 0.00 | 0.00 | 80 | 1012.9 |
| 20260507031559 | 64 | 288 | 2.0 | 6.0 | 0.00 | 0.00 | 0.00 | 80 | 1012.8 |
| 20260507031013 | 64 | 294 | 1.0 | 6.0 | 0.00 | 0.00 | 0.00 | 80 | 1012.9 |
| 20260507030539 | 64 | 265 | 2.0 | 5.0 | 0.00 | 0.00 | 0.00 | 80 | 1012.7 |
| 20260507030057 | 64 | 11 | 0.0 | 4.0 | 0.00 | 0.00 | 0.00 | 80 | 1012.5 |
| 20260507025507 | 64 | 15 | 1.0 | 4.0 | 0.00 | 0.00 | 0.00 | 81 | 1012.6 |
| 20260507025044 | 64 | 335 | 0.0 | 2.0 | 0.00 | 0.00 | 0.00 | 81 | 1012.5 |
| 20260507024603 | 64 | 285 | 0.0 | 4.0 | 0.00 | 0.00 | 0.00 | 82 | 1012.4 |
| 20260507024006 | 63 | 294 | 0.0 | 4.0 | 0.00 | 0.00 | 0.00 | 83 | 1012.5 |
| 20260507023536 | 63 | 294 | 0.0 | 5.0 | 0.00 | 0.00 | 0.00 | 84 | 1012.5 |
| 20260507023053 | 63 | 294 | 2.0 | 5.0 | 0.00 | 0.00 | 0.00 | 86 | 1012.4 |
| 20260507022502 | 63 | 294 | 0.0 | 3.0 | 0.00 | 0.00 | 0.00 | 87 | 1012.3 |
| 20260507022019 | 63 | 314 | 1.0 | 4.0 | 0.00 | 0.00 | 0.00 | 88 | 1012.5 |
| 20260507021549 | 63 | 293 | 1.0 | 5.0 | 0.00 | 0.00 | 0.00 | 88 | 1012.4 |
| 20260507021107 | 63 | 294 | 1.0 | 6.0 | 0.00 | 0.00 | 0.00 | 88 | 1012.3 |
| 20260507020514 | 64 | 294 | 1.0 | 6.0 | 0.00 | 0.00 | 0.00 | 88 | 1012.2 |
| 20260507020045 | 64 | 342 | 2.0 | 5.0 | 0.00 | 0.00 | 0.00 | 88 | 1012.2 |
| 20260507015605 | 64 | 9 | 1.0 | 7.0 | 0.00 | 0.00 | 0.00 | 88 | 1012.2 |
| 20260507015021 | 64 | 4 | 2.0 | 7.0 | 0.00 | 0.00 | 0.00 | 88 | 1012.3 |
| 20260507014551 | 64 | 3 | 3.0 | 7.0 | 0.00 | 0.00 | 0.00 | 88 | 1012.2 |
| 20260507014059 | 64 | 15 | 2.0 | 7.0 | 0.00 | 0.00 | 0.00 | 88 | 1012.2 |
| 20260507013508 | 64 | 342 | 2.0 | 7.0 | 0.00 | 0.00 | 0.00 | 88 | 1012.3 |
| 20260507013038 | 64 | 96 | 3.0 | 7.0 | 0.00 | 0.00 | 0.00 | 88 | 1012.2 |
| 20260507012558 | 64 | 351 | 2.0 | 5.0 | 0.00 | 0.00 | 0.00 | 88 | 1012.0 |
| 20260507012005 | 64 | 2 | 2.0 | 8.0 | 0.00 | 0.00 | 0.00 | 87 | 1012.0 |
| 20260507011539 | 64 | 328 | 2.0 | 8.0 | 0.00 | 0.00 | 0.00 | 88 | 1012.0 |
| 20260507011050 | 64 | 338 | 2.0 | 6.0 | 0.00 | 0.00 | 0.00 | 88 | 1012.0 |
| 20260507010610 | 64 | 340 | 3.0 | 6.0 | 0.00 | 0.00 | 0.00 | 88 | 1011.9 |
| 20260507010022 | 63 | 335 | 1.0 | 4.0 | 0.00 | 0.00 | 0.00 | 88 | 1012.0 |
| 20260507005545 | 63 | 319 | 0.0 | 3.0 | 0.00 | 0.00 | 0.00 | 88 | 1012.0 |
| 20260507005100 | 64 | 15 | 1.0 | 3.0 | 0.00 | 0.00 | 0.00 | 88 | 1012.0 |
| 20260507004508 | 64 | 307 | 0.0 | 4.0 | 0.00 | 0.00 | 0.00 | 88 | 1012.0 |
| 20260507004039 | 64 | 6 | 0.0 | 4.0 | 0.00 | 0.00 | 0.00 | 88 | 1012.0 |
| 20260507003555 | 64 | 3 | 0.0 | 5.0 | 0.00 | 0.00 | 0.00 | 88 | 1012.0 |
| 20260507003003 | 64 | 9 | 1.0 | 5.0 | 0.00 | 0.00 | 0.00 | 88 | 1012.1 |
| 20260507002532 | 64 | 7 | 1.0 | 5.0 | 0.00 | 0.00 | 0.00 | 88 | 1012.2 |
| 20260507002049 | 64 | 321 | 0.0 | 3.0 | 0.00 | 0.00 | 0.00 | 88 | 1012.1 |
| 20260507001605 | 64 | 1 | 0.0 | 4.0 | 0.00 | 0.00 | 0.00 | 88 | 1012.1 |
| 20260507001014 | 63 | 15 | 0.0 | 4.0 | 0.00 | 0.00 | 0.00 | 88 | 1012.1 |
| 20260507000540 | 63 | 4 | 0.0 | 2.0 | 0.00 | 0.00 | 0.00 | 88 | 1012.1 |
| 20260507000055 | 63 | 8 | 0.0 | 2.0 | 0.00 | 0.00 | 0.00 | 89 | 1012.2 |
| 20260506235505 | 63 | 8 | 0.0 | 2.0 | 0.00 | 0.00 | 0.00 | 89 | 1012.2 |
| 20260506235035 | 63 | 353 | 0.0 | 1.0 | 0.00 | 0.00 | 0.00 | 89 | 1012.2 |
| 20260506234549 | 63 | 255 | 0.0 | 1.0 | 0.00 | 0.00 | 0.00 | 89 | 1012.3 |
| 20260506234107 | 63 | 255 | 0.0 | 1.0 | 0.00 | 0.00 | 0.00 | 89 | 1012.3 |
| 20260506233515 | 63 | 255 | 0.0 | 0.0 | 0.00 | 0.00 | 0.00 | 89 | 1012.3 |
| 20260506233052 | 63 | 256 | 0.0 | 0.0 | 0.00 | 0.00 | 0.00 | 89 | 1012.2 |
| 20260506232608 | 63 | 255 | 0.0 | 1.0 | 0.00 | 0.00 | 0.00 | 89 | 1012.4 |
| 20260506232013 | 63 | 255 | 0.0 | 1.0 | 0.00 | 0.00 | 0.00 | 89 | 1012.3 |
| 20260506231541 | 63 | 255 | 0.0 | 1.0 | 0.00 | 0.00 | 0.00 | 89 | 1012.4 |
| 20260506231100 | 63 | 255 | 0.0 | 1.0 | 0.00 | 0.00 | 0.00 | 89 | 1012.5 |
| 20260506230505 | 63 | 255 | 0.0 | 1.0 | 0.00 | 0.00 | 0.00 | 89 | 1012.6 |
| 20260506230021 | 64 | 281 | 0.0 | 0.0 | 0.00 | 0.00 | 0.00 | 89 | 1012.6 |
| 20260506225554 | 64 | 297 | 0.0 | 0.0 | 0.00 | 0.00 | 0.00 | 89 | 1012.6 |
| 20260506225003 | 64 | 298 | 0.0 | 1.0 | 0.00 | 0.00 | 0.00 | 89 | 1012.5 |
| 20260506224537 | 64 | 298 | 0.0 | 1.0 | 0.00 | 0.00 | 0.00 | 89 | 1012.5 |
| 20260506224052 | 64 | 297 | 0.0 | 1.0 | 0.00 | 0.00 | 0.00 | 89 | 1012.5 |
| 20260506223608 | 64 | 298 | 0.0 | 1.0 | 0.00 | 0.00 | 0.00 | 89 | 1012.5 |
| 20260506223029 | 64 | 298 | 0.0 | 1.0 | 0.00 | 0.00 | 0.00 | 89 | 1012.5 |
| 20260506222548 | 64 | 300 | 0.0 | 1.0 | 0.00 | 0.00 | 0.00 | 89 | 1012.5 |
| 20260506222103 | 64 | 307 | 0.0 | 1.0 | 0.00 | 0.00 | 0.00 | 89 | 1012.5 |
| 20260506221515 | 64 | 307 | 0.0 | 1.0 | 0.00 | 0.00 | 0.00 | 89 | 1012.6 |
| 20260506221044 | 64 | 348 | 0.0 | 2.0 | 0.00 | 0.00 | 0.00 | 89 | 1012.5 |
| 20260506220601 | 65 | 359 | 0.0 | 3.0 | 0.00 | 0.00 | 0.00 | 89 | 1012.4 |
| 20260506220011 | 65 | 260 | 0.0 | 4.0 | 0.00 | 0.00 | 0.00 | 89 | 1012.6 |
| 20260506215533 | 65 | 6 | 0.0 | 6.0 | 0.00 | 0.00 | 0.00 | 89 | 1012.5 |
| 20260506215048 | 65 | 22 | 2.0 | 7.0 | 0.00 | 0.00 | 0.00 | 89 | 1012.5 |
| 20260506214605 | 65 | 9 | 4.0 | 7.0 | 0.00 | 0.00 | 0.00 | 89 | 1012.6 |
| 20260506214011 | 65 | 359 | 1.0 | 5.0 | 0.00 | 0.00 | 0.00 | 89 | 1012.6 |
| 20260506213541 | 65 | 9 | 1.0 | 6.0 | 0.00 | 0.00 | 0.00 | 89 | 1012.6 |
| 20260506213054 | 65 | 359 | 1.0 | 6.0 | 0.00 | 0.00 | 0.00 | 89 | 1012.5 |
| 20260506212503 | 65 | 335 | 0.0 | 7.0 | 0.00 | 0.00 | 0.00 | 89 | 1012.4 |
| 20260506212038 | 65 | 9 | 3.0 | 7.0 | 0.00 | 0.00 | 0.00 | 89 | 1012.6 |
| 20260506211548 | 65 | 4 | 3.0 | 7.0 | 0.00 | 0.00 | 0.00 | 89 | 1012.6 |
| 20260506211102 | 65 | 42 | 2.0 | 7.0 | 0.00 | 0.00 | 0.00 | 89 | 1012.6 |
| 20260506210509 | 65 | 9 | 3.0 | 8.0 | 0.00 | 0.00 | 0.00 | 89 | 1012.6 |
| 20260506210039 | 65 | 4 | 3.0 | 8.0 | 0.00 | 0.00 | 0.00 | 89 | 1012.6 |
| 20260506205555 | 65 | 1 | 2.0 | 8.0 | 0.00 | 0.00 | 0.00 | 89 | 1012.7 |
| 20260506205111 | 65 | 15 | 3.0 | 8.0 | 0.00 | 0.00 | 0.00 | 88 | 1012.6 |
| 20260506204514 | 65 | 13 | 3.0 | 6.0 | 0.00 | 0.00 | 0.00 | 88 | 1012.8 |
| 20260506204042 | 65 | 359 | 1.0 | 4.0 | 0.00 | 0.00 | 0.00 | 88 | 1012.7 |
| 20260506203556 | 65 | 11 | 1.0 | 4.0 | 0.00 | 0.00 | 0.00 | 88 | 1012.7 |
| 20260506203002 | 65 | 4 | 0.0 | 4.0 | 0.00 | 0.00 | 0.00 | 87 | 1012.7 |
| 20260506202510 | 65 | 2 | 0.0 | 4.0 | 0.00 | 0.00 | 0.00 | 87 | 1012.7 |
| 20260506202021 | 65 | 341 | 0.0 | 5.0 | 0.00 | 0.00 | 0.00 | 87 | 1012.6 |
| 20260506201542 | 65 | 9 | 1.0 | 5.0 | 0.00 | 0.00 | 0.00 | 87 | 1012.7 |
| 20260506201052 | 65 | 358 | 0.0 | 5.0 | 0.00 | 0.00 | 0.00 | 87 | 1012.5 |
| 20260506200558 | 65 | 359 | 1.0 | 6.0 | 0.00 | 0.00 | 0.00 | 87 | 1012.5 |
| 20260506200002 | 66 | 9 | 1.0 | 6.0 | 0.00 | 0.00 | 0.00 | 87 | 1012.5 |
| 20260506195530 | 66 | 9 | 1.0 | 4.0 | 0.00 | 0.00 | 0.00 | 87 | 1012.5 |
| 20260506195023 | 66 | 344 | 1.0 | 4.0 | 0.00 | 0.00 | 0.00 | 87 | 1012.5 |
| 20260506194548 | 66 | 2 | 0.0 | 3.0 | 0.00 | 0.00 | 0.00 | 87 | 1012.5 |
| 20260506194053 | 66 | 15 | 0.0 | 6.0 | 0.00 | 0.00 | 0.00 | 87 | 1012.5 |
| 20260506193600 | 66 | 9 | 2.0 | 8.0 | 0.00 | 0.00 | 0.00 | 87 | 1012.4 |
| 20260506193106 | 66 | 2 | 1.0 | 8.0 | 0.00 | 0.00 | 0.00 | 86 | 1012.3 |
| 20260506192614 | 66 | 351 | 1.0 | 7.0 | 0.00 | 0.00 | 0.00 | 86 | 1012.2 |
| 20260506192008 | 66 | 3 | 2.0 | 5.0 | 0.00 | 0.00 | 0.00 | 86 | 1012.1 |
| 20260506191514 | 66 | 15 | 0.0 | 3.0 | 0.00 | 0.00 | 0.00 | 85 | 1012.1 |
| 20260506191038 | 66 | 352 | 0.0 | 3.0 | 0.00 | 0.00 | 0.00 | 84 | 1012.0 |
| 20260506190546 | 66 | 342 | 0.0 | 2.0 | 0.00 | 0.00 | 0.00 | 84 | 1012.0 |
| 20260506190059 | 66 | 345 | 0.0 | 0.0 | 0.00 | 0.00 | 0.00 | 84 | 1011.9 |
| 20260506185609 | 66 | 344 | 0.0 | 2.0 | 0.00 | 0.00 | 0.00 | 84 | 1012.0 |
| 20260506185011 | 67 | 1 | 0.0 | 4.0 | 0.00 | 0.00 | 0.00 | 85 | 1011.8 |
| 20260506184017 | 66 | 359 | 0.0 | 2.0 | 0.00 | 0.00 | 0.00 | 84 | 1011.7 |
| 20260506183539 | 66 | 359 | 0.0 | 2.0 | 0.00 | 0.00 | 0.00 | 85 | 1011.6 |
| 20260506183053 | 66 | 225 | 0.0 | 2.0 | 0.00 | 0.00 | 0.00 | 84 | 1011.5 |
| 20260506182602 | 66 | 224 | 0.0 | 2.0 | 0.00 | 0.00 | 0.00 | 84 | 1011.5 |
| 20260506182108 | 66 | 134 | 0.0 | 1.0 | 0.00 | 0.00 | 0.00 | 85 | 1011.5 |
| 20260506181515 | 67 | 134 | 0.0 | 1.0 | 0.00 | 0.00 | 0.00 | 85 | 1011.7 |
| 20260506181042 | 67 | 134 | 0.0 | 2.0 | 0.00 | 0.00 | 0.00 | 85 | 1011.7 |
| 20260506180552 | 67 | 134 | 0.0 | 2.0 | 0.00 | 0.00 | 0.00 | 85 | 1011.6 |
| 20260506180117 | 67 | 253 | 0.0 | 1.0 | 0.00 | 0.00 | 0.00 | 84 | 1011.6 |
| 20260506175510 | 67 | 254 | 0.0 | 2.0 | 0.00 | 0.00 | 0.00 | 83 | 1011.6 |
| 20260506175024 | 67 | 255 | 0.0 | 2.0 | 0.00 | 0.00 | 0.00 | 83 | 1011.5 |
| 20260506174550 | 67 | 255 | 1.0 | 2.0 | 0.00 | 0.00 | 0.00 | 83 | 1011.6 |
| 20260506174102 | 68 | 134 | 0.0 | 2.0 | 0.00 | 0.00 | 0.00 | 84 | 1011.5 |
| 20260506173514 | 68 | 135 | 1.0 | 3.0 | 0.00 | 0.00 | 0.00 | 83 | 1011.6 |
| 20260506173022 | 68 | 108 | 0.0 | 2.0 | 0.00 | 0.00 | 0.00 | 83 | 1011.6 |
| 20260506172549 | 68 | 129 | 0.0 | 4.0 | 0.00 | 0.00 | 0.00 | 82 | 1011.6 |
| 20260506172105 | 68 | 108 | 0.0 | 4.0 | 0.00 | 0.00 | 0.00 | 81 | 1011.5 |
| 20260506171514 | 68 | 90 | 0.0 | 4.0 | 0.00 | 0.00 | 0.00 | 82 | 1011.4 |
| 20260506171040 | 68 | 66 | 0.0 | 5.0 | 0.00 | 0.00 | 0.00 | 82 | 1011.4 |
| 20260506170558 | 68 | 108 | 0.0 | 5.0 | 0.00 | 0.00 | 0.00 | 81 | 1011.3 |
| 20260506170006 | 69 | 134 | 1.0 | 4.0 | 0.00 | 0.00 | 0.00 | 81 | 1011.4 |
| 20260506165535 | 69 | 114 | 1.0 | 4.0 | 0.00 | 0.00 | 0.00 | 80 | 1011.5 |
| 20260506165052 | 69 | 114 | 0.0 | 3.0 | 0.00 | 0.00 | 0.00 | 80 | 1011.5 |
| 20260506164504 | 69 | 108 | 0.0 | 4.0 | 0.00 | 0.00 | 0.00 | 79 | 1011.6 |
| 20260506164033 | 70 | 119 | 1.0 | 4.0 | 0.00 | 0.00 | 0.00 | 78 | 1011.6 |
| 20260506163544 | 70 | 95 | 1.0 | 6.0 | 0.00 | 0.00 | 0.00 | 78 | 1011.6 |
| 20260506163104 | 70 | 58 | 0.0 | 4.0 | 0.00 | 0.00 | 0.00 | 77 | 1011.7 |
| 20260506162505 | 70 | 115 | 1.0 | 9.0 | 0.00 | 0.00 | 0.00 | 76 | 1011.7 |
| 20260506162035 | 70 | 108 | 1.0 | 9.0 | 0.00 | 0.00 | 0.00 | 75 | 1011.8 |
| 20260506161554 | 71 | 80 | 0.0 | 5.0 | 0.00 | 0.00 | 0.00 | 74 | 1011.7 |
| 20260506161104 | 71 | 108 | 2.0 | 8.0 | 0.00 | 0.00 | 0.00 | 73 | 1011.7 |
| 20260506160517 | 71 | 114 | 3.0 | 7.0 | 0.00 | 0.00 | 0.00 | 72 | 1011.6 |
| 20260506160037 | 71 | 128 | 1.0 | 4.0 | 0.00 | 0.00 | 0.00 | 73 | 1011.6 |
| 20260506155554 | 71 | 131 | 0.0 | 4.0 | 0.00 | 0.00 | 0.00 | 73 | 1011.7 |
| 20260506155109 | 71 | 121 | 0.0 | 4.0 | 0.00 | 0.00 | 0.00 | 74 | 1011.6 |
| 20260506154534 | 71 | 108 | 0.0 | 3.0 | 0.00 | 0.00 | 0.00 | 74 | 1011.6 |
| 20260506154048 | 71 | 131 | 1.0 | 5.0 | 0.00 | 0.00 | 0.00 | 73 | 1011.6 |
| 20260506153606 | 72 | 108 | 0.0 | 5.0 | 0.00 | 0.00 | 0.00 | 73 | 1011.5 |
| 20260506153015 | 71 | 134 | 0.0 | 5.0 | 0.00 | 0.00 | 0.00 | 73 | 1011.6 |
| 20260506152543 | 71 | 114 | 0.0 | 5.0 | 0.00 | 0.00 | 0.00 | 73 | 1011.6 |
| 20260506152103 | 71 | 109 | 1.0 | 4.0 | 0.00 | 0.00 | 0.00 | 72 | 1011.7 |
| 20260506151510 | 72 | 80 | 1.0 | 3.0 | 0.00 | 0.00 | 0.00 | 71 | 1011.9 |
| 20260506151038 | 72 | 80 | 0.0 | 6.0 | 0.00 | 0.00 | 0.00 | 70 | 1011.9 |
| 20260506150559 | 72 | 134 | 0.0 | 6.0 | 0.00 | 0.00 | 0.00 | 69 | 1012.0 |
| 20260506150004 | 72 | 140 | 0.0 | 7.0 | 0.00 | 0.00 | 0.00 | 67 | 1011.9 |
| 20260506145519 | 72 | 108 | 2.0 | 7.0 | 0.00 | 0.00 | 0.00 | 66 | 1011.8 |
| 20260506145045 | 72 | 108 | 0.0 | 9.0 | 0.00 | 0.00 | 0.00 | 66 | 1011.8 |
| 20260506144608 | 71 | 71 | 1.0 | 10.0 | 0.00 | 0.00 | 0.00 | 66 | 1011.8 |
| 20260506144006 | 71 | 73 | 2.0 | 10.0 | 0.00 | 0.00 | 0.00 | 66 | 1011.8 |
| 20260506143535 | 71 | 84 | 1.0 | 9.0 | 0.00 | 0.00 | 0.00 | 68 | 1011.8 |
| 20260506143052 | 71 | 83 | 3.0 | 9.0 | 0.00 | 0.00 | 0.00 | 67 | 1011.7 |
| 20260506142503 | 72 | 91 | 2.0 | 9.0 | 0.00 | 0.00 | 0.00 | 67 | 1011.7 |
| 20260506142015 | 72 | 77 | 1.0 | 8.0 | 0.00 | 0.00 | 0.00 | 67 | 1011.8 |
| 20260506141546 | 72 | 122 | 1.0 | 8.0 | 0.00 | 0.00 | 0.00 | 66 | 1011.8 |
| 20260506141102 | 73 | 108 | 2.0 | 8.0 | 0.00 | 0.00 | 0.00 | 65 | 1011.9 |
| 20260506140530 | 73 | 108 | 2.0 | 10.0 | 0.00 | 0.00 | 0.00 | 65 | 1011.9 |
| 20260506140042 | 73 | 108 | 3.0 | 10.0 | 0.00 | 0.00 | 0.00 | 66 | 1012.0 |
| 20260506135556 | 74 | 108 | 3.0 | 10.0 | 0.00 | 0.00 | 0.00 | 65 | 1012.1 |
| 20260506135010 | 74 | 15 | 2.0 | 12.0 | 0.00 | 0.00 | 0.00 | 66 | 1012.1 |
| 20260506134535 | 74 | 134 | 3.0 | 12.0 | 0.00 | 0.00 | 0.00 | 64 | 1012.2 |
| 20260506134051 | 74 | 76 | 3.0 | 12.0 | 0.00 | 0.00 | 0.00 | 63 | 1012.1 |
| 20260506133607 | 73 | 72 | 3.0 | 12.0 | 0.00 | 0.00 | 0.00 | 65 | 1012.0 |
| 20260506133040 | 74 | 102 | 2.0 | 11.0 | 0.00 | 0.00 | 0.00 | 65 | 1012.0 |
| 20260506132547 | 74 | 108 | 4.0 | 11.0 | 0.00 | 0.00 | 0.00 | 64 | 1012.2 |
| 20260506132103 | 74 | 108 | 2.0 | 7.0 | 0.00 | 0.00 | 0.00 | 66 | 1012.2 |
| 20260506131509 | 74 | 13 | 2.0 | 7.0 | 0.00 | 0.00 | 0.00 | 67 | 1012.3 |
| 20260506131037 | 73 | 112 | 0.0 | 7.0 | 0.00 | 0.00 | 0.00 | 70 | 1012.3 |
| 20260506130554 | 72 | 108 | 2.0 | 7.0 | 0.00 | 0.00 | 0.00 | 69 | 1012.3 |
| 20260506130107 | 72 | 72 | 2.0 | 6.0 | 0.00 | 0.00 | 0.00 | 71 | 1012.3 |
| 20260506125513 | 72 | 108 | 1.0 | 8.0 | 0.00 | 0.00 | 0.00 | 71 | 1012.2 |
| 20260506125041 | 72 | 117 | 2.0 | 9.0 | 0.00 | 0.00 | 0.00 | 65 | 1012.4 |
| 20260506124556 | 72 | 42 | 3.0 | 9.0 | 0.00 | 0.00 | 0.00 | 64 | 1012.3 |
| 20260506124110 | 72 | 58 | 3.0 | 9.0 | 0.00 | 0.00 | 0.00 | 63 | 1012.2 |
| 20260506123512 | 72 | 108 | 2.0 | 13.0 | 0.00 | 0.00 | 0.00 | 63 | 1012.3 |
| 20260506123036 | 73 | 134 | 2.0 | 13.0 | 0.00 | 0.00 | 0.00 | 64 | 1012.3 |
| 20260506122550 | 73 | 39 | 3.0 | 9.0 | 0.00 | 0.00 | 0.00 | 63 | 1012.3 |
| 20260506122103 | 73 | 101 | 3.0 | 9.0 | 0.00 | 0.00 | 0.00 | 62 | 1012.4 |
| 20260506121511 | 74 | 124 | 1.0 | 8.0 | 0.00 | 0.00 | 0.00 | 63 | 1012.4 |
| 20260506121041 | 74 | 98 | 3.0 | 8.0 | 0.00 | 0.00 | 0.00 | 62 | 1012.4 |
| 20260506120555 | 74 | 80 | 3.0 | 8.0 | 0.00 | 0.00 | 0.00 | 64 | 1012.4 |
| 20260506120021 | 73 | 86 | 2.0 | 6.0 | 0.00 | 0.00 | 0.00 | 67 | 1012.4 |
| 20260506115543 | 73 | 71 | 1.0 | 9.0 | 0.00 | 0.00 | 0.00 | 67 | 1012.4 |
| 20260506115056 | 72 | 156 | 2.0 | 9.0 | 0.00 | 0.00 | 0.00 | 68 | 1012.5 |
| 20260506114505 | 71 | 84 | 3.0 | 10.0 | 0.00 | 0.00 | 0.00 | 70 | 1012.3 |